Weather History for KBTA - April, 2013

Change the Weather History Date:

Tuesday, April 23, 2013

  Actual Average (KOMA) Record (KOMA)
Temperature  
Mean Temperature 32 °F 55 °F  
Max Temperature 37 °F 66 °F 90 °F (1950)
Min Temperature 27 °F 43 °F 28 °F (1956)
Degree Days  
Heating Degree Days 33 11  
Month to date heating degree days 344  
Since 1 July heating degree days 5933  
Cooling Degree Days 0 1  
Month to date cooling degree days 7  
Year to date cooling degree days 8  
Moisture  
Dew Point 23 °F    
Average Humidity 71    
Maximum Humidity 85    
Minimum Humidity 57    
Precipitation  
Precipitation 0.00 in 0.11 in 2.20 in (1955)
Month to date precipitation 2.12  
Year to date precipitation 5.68  
Snow  
Snow 0.00 in 0.00 in - ()
Month to date snowfall 0.9  
Since 1 July snowfall 26.3  
Snow Depth -    
Sea Level Pressure  
Sea Level Pressure 30.18 in    
Wind  
Wind Speed 19 mph (NNW)    
Max Wind Speed 26 mph    
Max Gust Speed 36 mph    
Visibility 10 miles    
Events      
T = Trace of Precipitation, MM = Missing Value Source: NWS Daily Summary

Daily Weather History Graph

Daily Weather History Graph

Search for Another Location

Airport or City:

Trip Planner

Search our weather history database for the weather conditions in past years. The results will help you decide how hot, cold, wet, or windy it might be!

Date:

Astronomy

Apr. 23, 2013 Rise Set
Actual Time 6:32 AM CDT 8:13 PM CDT
Civil Twilight 6:02 AM CDT 8:43 PM CDT
Nautical Twilight 5:27 AM CDT 9:18 PM CDT
Astronomical Twilight 4:49 AM CDT 9:57 PM CDT
Moon 6:08 PM CDT (4/23) 5:02 AM CDT (4/23)
Length of Visible Light 14h 40m
Length of Day
13h 41m
Waxing Gibbous, 94% of the Moon is Illuminated
Apr 23
Waxing Gibbous
Apr 25
Full
May 2
Last Quarter
May 9
New
May 17
First Quarter

Hourly Weather History & Observations

Time (CDT) Temp. Windchill Dew Point Humidity Pressure Visibility Wind Dir Wind Speed Gust Speed Precip Events Conditions
12:15 AM 32.0 °F 18.6 °F 27.9 °F 85% 30.19 in 10.0 mi NNW 25.3 mph 33.4 mph N/A   Overcast
12:35 AM 32.0 °F 19.8 °F 27.5 °F 83% 30.20 in 10.0 mi NNW 20.7 mph 28.8 mph N/A   Overcast
12:55 AM 31.8 °F 19.6 °F 27.5 °F 84% 30.22 in 10.0 mi NNW 20.7 mph 29.9 mph N/A   Overcast
1:15 AM 31.6 °F 18.4 °F 27.1 °F 83% 30.19 in 10.0 mi North 24.2 mph 31.1 mph N/A   Overcast
1:35 AM 31.1 °F 17.7 °F 26.4 °F 83% 30.16 in 10.0 mi North 24.2 mph 33.4 mph N/A   Overcast
1:55 AM 30.7 °F 16.9 °F 26.1 °F 83% 30.19 in 10.0 mi NNW 25.3 mph 31.1 mph N/A   Overcast
2:15 AM 30.6 °F 17.6 °F 25.7 °F 82% 30.18 in 10.0 mi NNW 21.9 mph 29.9 mph N/A   Overcast
2:35 AM 30.0 °F 17.5 °F 25.0 °F 82% 30.15 in 10.0 mi North 19.6 mph 35.7 mph N/A   Overcast
2:55 AM 30.2 °F 18.9 °F 25.2 °F 82% 30.21 in 10.0 mi NNW 16.1 mph 26.5 mph N/A   Overcast
3:15 AM 30.2 °F 19.3 °F 25.2 °F 82% 30.24 in 10.0 mi NNW 15.0 mph 24.2 mph N/A   Overcast
3:35 AM 30.2 °F 18.1 °F 25.2 °F 82% 30.23 in 10.0 mi North 18.4 mph 23.0 mph N/A   Overcast
3:55 AM 29.8 °F 18.0 °F 24.8 °F 81% 30.22 in 10.0 mi NNW 17.3 mph 25.3 mph N/A   Overcast
4:15 AM 29.8 °F 17.0 °F 24.4 °F 80% 30.19 in 10.0 mi NNW 20.7 mph 29.9 mph N/A   Overcast
4:35 AM 29.3 °F 16.6 °F 23.9 °F 80% 30.21 in 10.0 mi NNW 19.6 mph 26.5 mph N/A   Mostly Cloudy
4:55 AM 29.3 °F 16.6 °F 23.7 °F 80% 30.22 in 10.0 mi NNW 19.6 mph 26.5 mph N/A   Scattered Clouds
5:15 AM 29.3 °F 17.0 °F 23.9 °F 80% 30.21 in 10.0 mi NNW 18.4 mph 26.5 mph N/A   Scattered Clouds
5:35 AM 29.3 °F 15.9 °F 23.5 °F 79% 30.19 in 10.0 mi North 21.9 mph 26.5 mph N/A   Overcast
5:55 AM 28.9 °F 15.8 °F 23.0 °F 78% 30.16 in 10.0 mi North 20.7 mph 28.8 mph N/A   Mostly Cloudy
6:15 AM 28.4 °F 15.4 °F 22.6 °F 79% 30.16 in 10.0 mi North 19.6 mph 29.9 mph N/A   Scattered Clouds
6:35 AM 28.4 °F 16.2 °F 22.5 °F 78% 30.17 in 10.0 mi NNW 17.3 mph 32.2 mph N/A   Scattered Clouds
6:55 AM 28.6 °F 14.6 °F 22.3 °F 77% 30.20 in 10.0 mi North 23.0 mph 28.8 mph N/A   Scattered Clouds
7:15 AM 28.8 °F 15.2 °F 22.1 °F 76% 30.20 in 10.0 mi NNW 21.9 mph 31.1 mph N/A   Mostly Cloudy
7:35 AM 28.9 °F 14.3 °F 22.1 °F 76% 30.18 in 10.0 mi North 26.5 mph 32.2 mph N/A   Scattered Clouds
7:55 AM 29.1 °F 15.7 °F 21.9 °F 74% 30.19 in 10.0 mi North 21.9 mph 29.9 mph N/A   Scattered Clouds
8:15 AM 29.1 °F 17.9 °F 22.5 °F 76% 30.19 in 10.0 mi North 15.0 mph 25.3 mph N/A   Scattered Clouds
8:35 AM 29.5 °F 15.3 °F 22.6 °F 76% 30.19 in 10.0 mi NNW 25.3 mph 31.1 mph N/A   Scattered Clouds
8:55 AM 30.0 °F 17.5 °F 23.0 °F 75% 30.20 in 10.0 mi NNW 19.6 mph 25.3 mph N/A   Mostly Cloudy
9:15 AM 29.8 °F 17.7 °F 22.5 °F 74% 30.21 in 10.0 mi North 18.4 mph 25.3 mph N/A   Overcast
9:35 AM 30.2 °F 16.2 °F 22.1 °F 72% 30.20 in 10.0 mi NNW 25.3 mph 33.4 mph N/A   Overcast
9:55 AM 30.2 °F 17.8 °F 22.3 °F 72% 30.21 in 10.0 mi North 19.6 mph 34.5 mph N/A   Overcast
10:15 AM 31.1 °F 18.6 °F 22.5 °F 70% 30.21 in 10.0 mi North 20.7 mph 26.5 mph N/A   Overcast
10:35 AM 30.9 °F 18.7 °F 21.7 °F 69% 30.20 in 10.0 mi North 19.6 mph 29.9 mph N/A   Overcast
11:15 AM 31.6 °F 19.0 °F 21.4 °F 66% 30.20 in 10.0 mi North 21.9 mph 31.1 mph N/A   Mostly Cloudy
11:35 AM 32.5 °F 20.8 °F 22.6 °F 67% 30.20 in 10.0 mi NNW 19.6 mph 24.2 mph N/A   Clear
11:55 AM 33.1 °F 20.3 °F 22.6 °F 66% 30.19 in 10.0 mi NNW 24.2 mph 29.9 mph N/A   Clear
12:15 PM 33.3 °F 20.9 °F 22.8 °F 66% 30.20 in 10.0 mi NNW 23.0 mph 28.8 mph N/A   Scattered Clouds
12:35 PM 33.1 °F 21.5 °F 22.6 °F 66% 30.19 in 10.0 mi NNW 19.6 mph 25.3 mph N/A   Scattered Clouds
12:55 PM 34.3 °F 22.9 °F 22.8 °F 63% 30.18 in 10.0 mi North 20.7 mph 26.5 mph N/A   Clear
1:15 PM 35.6 °F 24.5 °F 23.4 °F 61% 30.18 in 10.0 mi NNW 20.7 mph 25.3 mph N/A   Scattered Clouds
1:35 PM 35.8 °F 26.1 °F 23.7 °F 62% 30.17 in 10.0 mi NNW 16.1 mph - N/A   Scattered Clouds
1:55 PM 35.8 °F 25.4 °F 24.1 °F 62% 30.17 in 10.0 mi North 18.4 mph 25.3 mph N/A   Scattered Clouds
2:15 PM 36.3 °F 26.1 °F 24.4 °F 62% 30.17 in 10.0 mi NNW 18.4 mph 24.2 mph N/A   Scattered Clouds
2:35 PM 37.0 °F 26.4 °F 24.6 °F 61% 30.16 in 10.0 mi NNW 20.7 mph - N/A   Scattered Clouds
2:55 PM 36.0 °F 25.6 °F 23.7 °F 61% 30.17 in 10.0 mi NNW 18.4 mph 21.9 mph N/A   Scattered Clouds
3:15 PM 36.7 °F 27.2 °F 24.3 °F 61% 30.16 in 10.0 mi North 16.1 mph 19.6 mph N/A   Mostly Cloudy
3:35 PM 36.5 °F 27.8 °F 23.7 °F 60% 30.16 in 10.0 mi North 13.8 mph 18.4 mph N/A   Mostly Cloudy
3:55 PM 37.2 °F 29.1 °F 23.7 °F 58% 30.16 in 10.0 mi NNW 12.7 mph 20.7 mph N/A   Mostly Cloudy
4:15 PM 37.2 °F 28.7 °F 24.1 °F 59% 30.15 in 10.0 mi North 13.8 mph - N/A   Mostly Cloudy
4:35 PM 37.2 °F 29.6 °F 23.5 °F 58% 30.15 in 10.0 mi NNW 11.5 mph - N/A   Mostly Cloudy
4:55 PM 36.7 °F 27.2 °F 22.8 °F 57% 30.15 in 10.0 mi NNW 16.1 mph 20.7 mph N/A   Mostly Cloudy
5:15 PM 36.3 °F 26.8 °F 23.7 °F 60% 30.14 in 10.0 mi North 16.1 mph - N/A   Mostly Cloudy
5:35 PM 37.4 °F 27.8 °F 23.5 °F 57% 30.14 in 10.0 mi NNW 17.3 mph 20.7 mph N/A   Scattered Clouds
5:55 PM 36.3 °F 26.1 °F 23.2 °F 59% 30.13 in 10.0 mi North 18.4 mph 24.2 mph N/A   Mostly Cloudy
6:15 PM 36.0 °F 26.0 °F 23.2 °F 60% 30.14 in 10.0 mi NNW 17.3 mph 21.9 mph N/A   Mostly Cloudy
6:35 PM 34.9 °F 24.6 °F 23.7 °F 64% 30.15 in 10.0 mi NNW 17.3 mph - N/A   Overcast
6:55 PM 34.7 °F 26.4 °F 22.8 °F 62% 30.15 in 10.0 mi NNW 11.5 mph - N/A   Scattered Clouds
7:15 PM 34.7 °F 26.4 °F 23.2 °F 63% 30.15 in 10.0 mi North 11.5 mph - N/A   Scattered Clouds
7:35 PM 34.9 °F 24.9 °F 22.6 °F 61% 30.15 in 10.0 mi NNW 16.1 mph 19.6 mph N/A   Overcast
7:55 PM 33.4 °F 23.5 °F 21.9 °F 63% 30.15 in 10.0 mi NNW 15.0 mph - N/A   Mostly Cloudy
8:15 PM 32.9 °F 23.7 °F 21.7 °F 64% 30.16 in 10.0 mi NNW 12.7 mph - N/A   Scattered Clouds
8:35 PM 32.2 °F 23.2 °F 21.2 °F 64% 30.16 in 10.0 mi NNW 11.5 mph - N/A   Clear
8:55 PM 32.0 °F 24.2 °F 21.0 °F 64% 30.17 in 10.0 mi NW 9.2 mph - N/A   Clear
9:15 PM 31.1 °F 23.7 °F 21.2 °F 67% 30.18 in 10.0 mi NW 8.1 mph - N/A   Clear
9:35 PM 30.9 °F 22.8 °F 20.8 °F 66% 30.18 in 10.0 mi NW 9.2 mph - N/A   Clear
9:55 PM 30.2 °F 22.6 °F 20.7 °F 68% 30.18 in 10.0 mi NW 8.1 mph - N/A   Clear
10:15 PM 29.3 °F 22.3 °F 20.7 °F 70% 30.19 in 10.0 mi NW 6.9 mph - N/A   Clear
10:35 PM 28.8 °F 25.0 °F 20.8 °F 72% 30.19 in 10.0 mi WNW 3.5 mph - N/A   Clear
10:55 PM 28.4 °F 23.3 °F 21.2 °F 74% 30.18 in 10.0 mi WNW 4.6 mph - N/A   Clear
11:15 PM 27.9 °F 22.6 °F 21.6 °F 77% 30.18 in 10.0 mi WNW 4.6 mph - N/A   Clear
11:55 PM 27.5 °F 21.1 °F 21.7 °F 79% 30.18 in 7.0 mi WNW 5.8 mph - N/A   Clear